Content
SEND FEEDBACK

Daily
Averages
Monthly
Summary
United States of America

GLENN'S FERRY, IDAHO


Home > North America > United States > Idaho
Elevation: 4304 feet     Latitude: 43 20N     Longitude: 115 30W

WEATHER
 
SELECT A DAY
Number of Records: 176,458;   Date Range: 1/1/95 - 7/7/14
 
SHARE

PRINT THIS DATA

[ ← Previous Day ]
WEATHER ALMANAC - FEBRUARY 13, 2013
[ Next Day → ]
[ °C ]   °F
Weather ElementAverageHighLow
Temperature37.9 °F51.8 °F (2:58 pm)26.1 °F (6:58 am)
Dewpoint27.1 °F30.2 °F (9:55 am)23 °F (6:58 am)
Humidity67.3 %88 % (6:58 am)41 % (2:58 pm)
Barometer30.30 in30.39 in (8:59 am)30.22 in (4:58 pm)
Wind Speed8.2 mph20.7 mph (11:38 pm)
Wind Gust20.7 mph (3:58 pm)
Weather ElementAverage
Visibility9.9 mi
Wind DirectionSW (228.5 °)

Weather ElementTotal
Precipitation---
Heating Degree Days26.1 (Base 65)
Averaged from 33 records on February 13, 2013
WEATHER CONDITIONS BREAKOUT
WIND DIRECTION BREAKOUT
WEATHER BY HOUR - FEBRUARY 13, 2013
[ °C ]   °F
Local TimeTemperatureDewpointHumidityBarometerVisibilityWind DirectionWind SpeedGust SpeedPrecipitationEventsConditions
1:58 AM31.3 °F25.5 °F79 %30.37 in10.0 miWest (270°)3.5 mphOvercast
2:55 AM32.0 °F26.6 °F80 %30.35 in7.0 miWest (280°)3.5 mphOvercast
3:58 AM32.0 °F26.6 °F80 %30.35 in10.0 miWNW (300°)3.5 mphMostly Cloudy
4:58 AM29.7 °F25.0 °F83 %30.34 in10.0 miNNW (330°)1.2 mphScattered Clouds
5:58 AM27.9 °F23.5 °F84 %30.37 in10.0 miCalmClear
6:58 AM26.1 °F23.0 °F88 %30.37 in10.0 miCalmPartly Cloudy
7:13 AM26.6 °F23.0 °F86 %30.30 in10.0 miVariable1.2 mphMostly Cloudy
7:48 AM28.4 °F24.8 °F86 %30.29 in10.0 miCalmOvercast
7:53 AM28.4 °F24.8 °F86 %30.30 in10.0 miNorth (360°)2.3 mphOvercast
7:58 AM28.8 °F25.3 °F87 %30.37 in10.0 miCalmOvercast
8:03 AM28.4 °F24.8 °F86 %30.30 in10.0 miCalmOvercast
8:13 AM30.2 °F26.6 °F86 %30.31 in10.0 miNE (50°)1.2 mphOvercast
8:59 AM32.0 °F28.4 °F87 %30.39 in10.0 miCalmOvercast
9:55 AM37.4 °F30.2 °F75 %30.37 in10.0 miCalmOvercast
10:55 AM44.6 °F28.4 °F53 %30.36 in10.0 miWest (270°)4.6 mphMostly Cloudy
11:55 AM46.4 °F28.4 °F50 %30.34 in10.0 miWNW (290°)6.9 mphScattered Clouds
12:59 PM50.0 °F28.4 °F43 %30.30 in10.0 miWNW (290°)8.1 mphPartly Cloudy
1:55 PM50.0 °F28.4 °F43 %30.28 in10.0 miNorth (360°)15.0 mphScattered Clouds
2:58 PM51.8 °F28.4 °F41 %30.26 in10.0 miNW (320°)13.8 mphScattered Clouds
3:58 PM51.8 °F28.4 °F41 %30.26 in10.0 miNW (320°)17.3 mph20.7 mphMostly Cloudy
4:58 PM50.0 °F28.4 °F43 %30.22 in10.0 miNNW (330°)12.7 mphMostly Cloudy
5:58 PM46.4 °F28.4 °F50 %30.22 in10.0 miNNW (330°)11.5 mphMostly Cloudy
6:58 PM43.5 °F29.3 °F57 %30.29 in10.0 miNNW (330°)10.4 mphOvercast
7:43 PM42.8 °F28.4 °F57 %30.24 in10.0 miNNW (330°)13.8 mphOvercast
7:58 PM43.5 °F28.0 °F54 %30.30 in10.0 miNNW (330°)12.7 mphOvercast
8:58 PM39.0 °F28.9 °F67 %30.25 in10.0 miWNW (290°)9.2 mphScattered Clouds
9:58 PM36.3 °F27.9 °F71 %30.26 in10.0 miWNW (290°)10.4 mphClear
10:37 PM39.2 °F28.4 °F65 %30.27 in10.0 miNW (320°)15.0 mphMostly Cloudy
10:58 PM39.9 °F27.5 °F61 %30.27 in10.0 miNW (310°)15.0 mphOvercast
11:33 PM39.2 °F28.4 °F65 %30.28 in10.0 miNW (310°)17.3 mphScattered Clouds
11:38 PM39.2 °F28.4 °F65 %30.28 in10.0 miNW (310°)20.7 mphMostly Cloudy
11:53 PM39.2 °F26.6 °F61 %30.27 in10.0 miNW (310°)19.6 mphScattered Clouds
11:58 PM39.7 °F27.1 °F61 %30.31 in10.0 miNW (310°)20.7 mphScattered Clouds
Hourly data recorded from KMUO, located miles away from Glenn's Ferry, Idaho







STORIES FROM OUR PARTNERS